Home   Weather   Resolute Bay   Past weeks
Flag for Canada

Past Weather in Resolute Bay, Nunavut, Canada — Yesterday and Last 2 Weeks

Now
27 °F

Partly sunny.


Feels Like: 11 °F
Forecast: 30 / 21 °F
Wind: 26 mph from Northeast

Location: Resolute

Current Time: May 25, 2019 at 10:27:05 am

Latest Report: May 25, 2019 at 9:00 am


Visibility: 15 mi

Pressure: 29.91 "Hg

Humidity: 86%

Dew Point: 23 °F

Location of Resolute BayLocation

Past Weather in Resolute Bay — Graph

°F

Resolute Bay Temperature Yesterday

Maximum temperature yesterday: 27 °F (at 5:00 pm)
Minimum temperature yesterday: 16 °F (at 2:00 am)
Average temperature yesterday: 21 °F

High & Low Weather Summary for the Past Weeks

 TemperatureHumidityPressure
High32 °F (May 13, 11:00 am)93% (May 10, 1:00 pm)30.53 "Hg (May 10, 1:00 pm)
Low5 °F (May 20, 12:00 am)68% (May 22, 12:00 pm)29.91 "Hg (May 25, 9:00 am)
Average19 °F83%30.32 "Hg
* Reported May 10 9:00 am — May 25 9:00 am, Resolute Bay. Weather by CustomWeather, © 2019

Note: Actual official high and low records may vary slightly from our data, if they occured in-between our weather recording intervals... More about our weather records

Advertising

Resolute Bay Weather History for the Previous 24 Hours

Scroll right to see more
 ConditionsComfort  
Time TempWeatherWind HumidityBarometerVisibility
9:00 am
Sat, May 25
27 °FPartly sunny.26 mph86%29.91 "Hg15 mi
8:00 am27 °FPartly sunny.22 mph86%29.93 "Hg15 mi
7:00 am27 °FPartly sunny.2 mph80%29.94 "Hg15 mi
6:00 am27 °FPartly sunny.14 mph80%29.94 "Hg15 mi
5:00 am25 °FPartly sunny.23 mph80%29.94 "Hg15 mi
4:00 am23 °FBroken clouds.18 mph80%29.95 "Hg15 mi
3:00 am25 °FPartly sunny.2 mph74%29.96 "Hg15 mi
2:00 am23 °FScattered clouds.No wind80%29.97 "Hg15 mi
1:00 am25 °FScattered clouds.2 mph69%29.97 "Hg15 mi
12:00 am23 °FScattered clouds.14 mph80%29.97 "Hg15 mi
11:00 pm
Fri, May 24
23 °FScattered clouds.22 mph80%29.98 "Hg15 mi
10:00 pm23 °FScattered clouds.22 mph80%29.99 "Hg15 mi
9:00 pm25 °FScattered clouds.18 mph80%30.01 "Hg15 mi
8:00 pm25 °FScattered clouds.8 mph80%30.02 "Hg14 mi
7:00 pm27 °FScattered clouds.18 mph80%30.01 "Hg15 mi
6:00 pm27 °FScattered clouds.18 mph80%30.02 "Hg15 mi
5:00 pm27 °FScattered clouds.9 mph80%30.03 "Hg15 mi
4:00 pm25 °FScattered clouds.13 mph80%30.03 "Hg14 mi
3:00 pm23 °FScattered clouds.14 mph86%30.04 "Hg15 mi
2:00 pm23 °FScattered clouds.12 mph86%30.06 "Hg15 mi
1:00 pm21 °FScattered clouds.15 mph86%30.06 "Hg15 mi
12:00 pm19 °FPassing clouds.9 mph79%30.06 "Hg15 mi
11:00 am18 °FScattered clouds.9 mph86%30.08 "Hg15 mi
10:00 am19 °FScattered clouds.12 mph73%30.09 "Hg15 mi
Weather by CustomWeather, © 2019

See weather overview